Precipitable_Water
0.84 0.89 0.97 0.99 1.02 1.06 1.10 1.15 1.21 1.21 1.24 1.24 1.21 1.22 1.14 1.12 1.09 1.04 0.94 1.02 0.80 0.62 0.67 0.69 0.67 0.65 0.63 0.65 0.54 0.64 0.59 0.60 0.59 0.50 0.48 0.46 0.41 0.43 0.40 0.41 0.39 0.35 0.33 0.32 0.31 0.26 0.22 0.33 0.31 0.27 0.30 0.34 0.36 0.34
0.80 0.85 0.90 0.96 0.97 1.01 1.03 1.05 1.12 1.16 1.19 1.22 1.21 1.18 1.18 1.20 1.20 1.18 0.90 1.01 1.07 0.79 0.71 0.81 0.81 0.85 0.80 0.78 0.71 0.69 0.65 0.64 0.65 0.56 0.54 0.52 0.44 0.44 0.41 0.34 0.43 0.35 0.39 0.34 0.33 0.31 0.37 0.36 0.35 0.36 0.36 0.34 0.33 0.30
0.74 0.81 0.84 0.89 0.95 0.96 0.97 1.00 1.03 1.09 1.13 1.16 1.18 1.19 1.16 1.16 1.16 1.14 1.01 1.00 0.94 0.76 0.70 0.69 0.65 0.76 0.83 0.84 0.87 0.66 0.69 0.73 0.68 0.73 0.62 0.56 0.46 0.48 0.38 0.38 0.40 0.43 0.45 0.37 0.36 0.38 0.37 0.36 0.36 0.35 0.35 0.33 0.31 0.30
0.65 0.77 0.80 0.84 0.91 0.92 0.91 0.94 0.97 1.02 1.06 1.09 1.12 1.14 1.17 1.17 1.18 1.13 0.97 1.03 0.96 0.78 0.58 0.58 0.77 0.71 0.80 0.82 0.83 0.84 0.77 0.78 0.76 0.72 0.61 0.54 0.48 0.55 0.44 0.44 0.41 0.44 0.43 0.39 0.36 0.36 0.36 0.35 0.35 0.34 0.32 0.32 0.30 0.29
0.56 0.69 0.77 0.80 0.83 0.87 0.88 0.89 0.93 0.98 0.99 1.02 1.07 1.08 1.11 1.12 1.13 1.13 1.08 1.03 1.02 0.82 0.59 0.58 0.69 0.73 0.77 0.78 0.77 0.80 0.76 0.72 0.67 0.60 0.55 0.50 0.54 0.52 0.49 0.46 0.41 0.44 0.40 0.35 0.32 0.36 0.34 0.32 0.33 0.33 0.30 0.29 0.29 0.28
0.54 0.60 0.74 0.79 0.79 0.84 0.85 0.85 0.89 0.93 0.93 0.96 1.00 1.02 1.04 1.05 1.06 0.98 0.81 0.98 1.02 0.96 0.72 0.55 0.67 0.67 0.73 0.75 0.73 0.71 0.71 0.68 0.65 0.58 0.54 0.55 0.59 0.51 0.40 0.36 0.43 0.43 0.43 0.42 0.36 0.36 0.34 0.33 0.31 0.31 0.29 0.29 0.29 0.27
0.54 0.55 0.68 0.76 0.77 0.82 0.81 0.81 0.87 0.87 0.86 0.90 0.93 0.96 0.97 0.98 0.95 0.81 0.75 0.88 1.00 0.95 0.71 0.57 0.55 0.62 0.68 0.69 0.67 0.66 0.67 0.63 0.60 0.55 0.51 0.50 0.50 0.50 0.41 0.35 0.39 0.39 0.39 0.37 0.35 0.33 0.29 0.30 0.28 0.30 0.30 0.28 0.27 0.25
0.55 0.54 0.61 0.73 0.74 0.77 0.77 0.78 0.84 0.82 0.81 0.83 0.88 0.92 0.93 0.92 0.89 0.79 0.88 0.93 0.94 0.78 0.71 0.52 0.49 0.50 0.58 0.52 0.52 0.61 0.55 0.56 0.53 0.50 0.49 0.44 0.44 0.43 0.33 0.36 0.37 0.36 0.34 0.31 0.31 0.32 0.30 0.31 0.31 0.29 0.28 0.25 0.23 0.22
0.55 0.55 0.59 0.69 0.73 0.74 0.74 0.78 0.80 0.79 0.77 0.81 0.83 0.83 0.83 0.76 0.68 0.72 0.86 0.87 0.86 0.72 0.55 0.52 0.45 0.41 0.55 0.52 0.54 0.53 0.53 0.42 0.47 0.40 0.39 0.39 0.35 0.29 0.32 0.33 0.32 0.31 0.29 0.29 0.31 0.31 0.31 0.29 0.27 0.25 0.24 0.23 0.21 0.20
0.55 0.56 0.57 0.63 0.69 0.71 0.72 0.77 0.71 0.69 0.75 0.78 0.74 0.64 0.56 0.65 0.79 0.78 0.68 0.61 0.61 0.62 0.59 0.48 0.51 0.43 0.48 0.48 0.45 0.44 0.44 0.38 0.32 0.34 0.38 0.31 0.28 0.32 0.32 0.31 0.31 0.31 0.31 0.32 0.29 0.28 0.28 0.25 0.23 0.23 0.22 0.22 0.20 0.18
0.55 0.55 0.57 0.63 0.68 0.69 0.71 0.70 0.69 0.73 0.72 0.64 0.55 0.50 0.62 0.73 0.65 0.58 0.49 0.47 0.48 0.44 0.50 0.49 0.47 0.42 0.49 0.41 0.40 0.44 0.37 0.36 0.28 0.28 0.28 0.25 0.23 0.26 0.29 0.30 0.31 0.32 0.32 0.32 0.31 0.28 0.26 0.25 0.23 0.22 0.21 0.19 0.17 0.17
0.53 0.55 0.56 0.62 0.65 0.68 0.68 0.68 0.70 0.67 0.62 0.60 0.60 0.61 0.60 0.52 0.47 0.42 0.39 0.42 0.41 0.38 0.44 0.41 0.42 0.44 0.45 0.48 0.40 0.38 0.33 0.33 0.25 0.31 0.26 0.21 0.24 0.29 0.29 0.29 0.31 0.32 0.31 0.29 0.27 0.25 0.25 0.24 0.23 0.20 0.17 0.17 0.17 0.17
0.51 0.54 0.56 0.61 0.64 0.67 0.67 0.68 0.69 0.67 0.65 0.61 0.52 0.45 0.40 0.40 0.33 0.31 0.28 0.32 0.33 0.39 0.40 0.40 0.37 0.42 0.43 0.43 0.37 0.34 0.29 0.26 0.31 0.25 0.21 0.22 0.26 0.28 0.29 0.30 0.30 0.30 0.28 0.26 0.25 0.24 0.24 0.22 0.18 0.17 0.17 0.17 0.17 0.17
0.50 0.53 0.56 0.60 0.64 0.67 0.67 0.67 0.67 0.64 0.58 0.44 0.38 0.32 0.31 0.28 0.29 0.30 0.30 0.32 0.36 0.36 0.38 0.38 0.36 0.36 0.38 0.35 0.34 0.28 0.29 0.28 0.22 0.19 0.18 0.22 0.25 0.27 0.29 0.29 0.28 0.26 0.26 0.25 0.23 0.22 0.19 0.17 0.17 0.17 0.17 0.17 0.17 0.17
0.51 0.53 0.57 0.60 0.63 0.65 0.66 0.66 0.65 0.61 0.50 0.39 0.37 0.27 0.28 0.32 0.33 0.34 0.36 0.35 0.38 0.40 0.38 0.35 0.35 0.35 0.32 0.30 0.29 0.27 0.23 0.20 0.19 0.18 0.21 0.23 0.26 0.27 0.27 0.27 0.27 0.25 0.24 0.22 0.20 0.17 0.17 0.17 0.16 0.16 0.17 0.18 0.18 0.17
0.51 0.54 0.55 0.59 0.64 0.65 0.65 0.63 0.58 0.54 0.45 0.39 0.36 0.29 0.30 0.28 0.29 0.32 0.34 0.34 0.38 0.37 0.36 0.35 0.30 0.28 0.27 0.26 0.23 0.21 0.19 0.17 0.19 0.23 0.24 0.26 0.26 0.28 0.27 0.27 0.25 0.24 0.22 0.18 0.17 0.17 0.17 0.17 0.16 0.16 0.17 0.17 0.17 0.17
0.54 0.52 0.57 0.60 0.65 0.64 0.61 0.53 0.48 0.40 0.36 0.33 0.29 0.32 0.30 0.29 0.29 0.31 0.34 0.35 0.40 0.35 0.30 0.30 0.25 0.23 0.27 0.22 0.20 0.22 0.20 0.22 0.23 0.24 0.26 0.28 0.29 0.28 0.26 0.25 0.24 0.20 0.18 0.17 0.17 0.17 0.17 0.17 0.17 0.16 0.16 0.17 0.18 0.18
0.51 0.56 0.61 0.61 0.58 0.56 0.50 0.46 0.39 0.35 0.29 0.29 0.27 0.28 0.31 0.31 0.30 0.31 0.32 0.34 0.33 0.31 0.30 0.27 0.28 0.24 0.22 0.20 0.19 0.22 0.24 0.27 0.28 0.29 0.30 0.29 0.28 0.27 0.25 0.21 0.19 0.18 0.17 0.17 0.17 0.17 0.17 0.16 0.16 0.16 0.17 0.17 0.17 0.17
0.56 0.58 0.59 0.58 0.56 0.48 0.38 0.37 0.38 0.28 0.28 0.29 0.29 0.31 0.31 0.30 0.31 0.31 0.30 0.32 0.34 0.35 0.32 0.29 0.25 0.22 0.23 0.26 0.25 0.28 0.29 0.28 0.28 0.28 0.27 0.27 0.25 0.23 0.20 0.19 0.19 0.18 0.18 0.17 0.17 0.17 0.17 0.17 0.16 0.17 0.17 0.18 0.17 0.17
0.59 0.57 0.57 0.57 0.55 0.42 0.33 0.31 0.35 0.28 0.25 0.27 0.28 0.27 0.28 0.27 0.28 0.27 0.27 0.28 0.29 0.28 0.26 0.23 0.23 0.25 0.26 0.28 0.29 0.28 0.28 0.27 0.26 0.23 0.23 0.23 0.21 0.20 0.19 0.19 0.18 0.18 0.18 0.17 0.17 0.18 0.17 0.16 0.17 0.17 0.18 0.18 0.17 0.17
0.53 0.52 0.53 0.51 0.43 0.38 0.31 0.28 0.26 0.26 0.26 0.25 0.27 0.26 0.25 0.27 0.24 0.24 0.25 0.28 0.25 0.24 0.23 0.24 0.23 0.25 0.28 0.29 0.30 0.29 0.27 0.26 0.23 0.22 0.19 0.18 0.20 0.20 0.20 0.19 0.18 0.18 0.17 0.17 0.16 0.16 0.16 0.16 0.16 0.17 0.17 0.17 0.17 0.17
0.45 0.50 0.44 0.43 0.35 0.32 0.29 0.30 0.26 0.27 0.25 0.24 0.24 0.25 0.22 0.21 0.21 0.22 0.24 0.22 0.21 0.22 0.23 0.23 0.24 0.25 0.26 0.26 0.26 0.26 0.26 0.24 0.22 0.21 0.21 0.21 0.18 0.18 0.17 0.18 0.17 0.17 0.16 0.17 0.17 0.16 0.15 0.16 0.17 0.17 0.16 0.15 0.15 0.16
0.49 0.46 0.39 0.36 0.29 0.27 0.23 0.28 0.23 0.24 0.20 0.21 0.21 0.19 0.18 0.18 0.20 0.23 0.19 0.20 0.21 0.24 0.25 0.25 0.26 0.26 0.25 0.25 0.25 0.24 0.23 0.22 0.21 0.20 0.20 0.19 0.19 0.19 0.19 0.18 0.18 0.17 0.17 0.17 0.17 0.16 0.15 0.16 0.16 0.15 0.14 0.13 0.13 0.13
0.44 0.35 0.29 0.27 0.25 0.21 0.24 0.22 0.23 0.22 0.21 0.20 0.19 0.18 0.20 0.21 0.23 0.21 0.19 0.21 0.23 0.25 0.25 0.25 0.25 0.24 0.24 0.24 0.23 0.22 0.22 0.21 0.20 0.19 0.19 0.18 0.18 0.18 0.18 0.18 0.18 0.18 0.18 0.17 0.16 0.15 0.15 0.15 0.15 0.14 0.14 0.14 0.14 0.14
0.28 0.24 0.24 0.20 0.22 0.20 0.19 0.20 0.20 0.21 0.19 0.20 0.19 0.19 0.20 0.22 0.19 0.18 0.18 0.20 0.22 0.22 0.23 0.24 0.24 0.23 0.22 0.21 0.20 0.20 0.21 0.20 0.18 0.17 0.18 0.18 0.18 0.18 0.17 0.18 0.18 0.19 0.19 0.17 0.15 0.15 0.14 0.14 0.13 0.13 0.14 0.15 0.15 0.14
0.19 0.20 0.19 0.20 0.20 0.19 0.19 0.18 0.19 0.19 0.20 0.19 0.19 0.20 0.21 0.19 0.17 0.16 0.17 0.19 0.20 0.21 0.22 0.22 0.21 0.20 0.19 0.19 0.18 0.17 0.18 0.19 0.19 0.17 0.18 0.18 0.18 0.17 0.16 0.16 0.16 0.17 0.19 0.18 0.16 0.14 0.14 0.13 0.13 0.14 0.14 0.14 0.15 0.14
0.15 0.17 0.19 0.22 0.22 0.22 0.20 0.21 0.21 0.19 0.17 0.17 0.18 0.18 0.18 0.15 0.15 0.15 0.17 0.18 0.20 0.21 0.21 0.20 0.19 0.17 0.17 0.17 0.18 0.18 0.18 0.18 0.18 0.17 0.18 0.18 0.18 0.18 0.18 0.16 0.16 0.17 0.19 0.18 0.17 0.16 0.14 0.14 0.13 0.14 0.14 0.14 0.14 0.14
0.14 0.15 0.15 0.18 0.20 0.21 0.19 0.19 0.18 0.17 0.18 0.19 0.19 0.15 0.13 0.11 0.10 0.12 0.13 0.15 0.16 0.17 0.17 0.17 0.17 0.17 0.17 0.17 0.17 0.17 0.17 0.17 0.17 0.17 0.18 0.18 0.18 0.18 0.18 0.18 0.18 0.18 0.19 0.19 0.19 0.18 0.17 0.15 0.14 0.14 0.14 0.14 0.15 0.16
0.18 0.20 0.19 0.18 0.18 0.17 0.15 0.14 0.14 0.16 0.17 0.15 0.11 0.10 0.10 0.11 0.13 0.13 0.14 0.15 0.16 0.16 0.15 0.15 0.15 0.16 0.16 0.16 0.16 0.16 0.16 0.15 0.14 0.13 0.13 0.13 0.14 0.15 0.18 0.18 0.17 0.17 0.17 0.18 0.19 0.19 0.18 0.17 0.16 0.15 0.16 0.17 0.17 0.17
0.13 0.13 0.10 0.09 0.09 0.08 0.10 0.11 0.11 0.12 0.12 0.12 0.12 0.11 0.11 0.12 0.13 0.14 0.14 0.14 0.14 0.14 0.14 0.14 0.15 0.15 0.14 0.14 0.14 0.15 0.16 0.16 0.16 0.14 0.13 0.13 0.14 0.16 0.17 0.17 0.18 0.17 0.17 0.17 0.18 0.18 0.19 0.18 0.18 0.17 0.17 0.16 0.16 0.16
0.10 0.09 0.08 0.08 0.08 0.09 0.10 0.11 0.11 0.11 0.11 0.11 0.11 0.11 0.11 0.12 0.13 0.14 0.13 0.13 0.13 0.13 0.13 0.13 0.13 0.14 0.14 0.14 0.14 0.14 0.14 0.16 0.16 0.16 0.16 0.16 0.17 0.17 0.18 0.18 0.18 0.18 0.18 0.17 0.17 0.17 0.17 0.16 0.16 0.16 0.15 0.15 0.15 0.15
0.10 0.09 0.08 0.08 0.09 0.10 0.11 0.10 0.10 0.10 0.10 0.10 0.10 0.11 0.12 0.11 0.10 0.11 0.12 0.13 0.12 0.12 0.13 0.13 0.13 0.13 0.14 0.15 0.15 0.15 0.16 0.15 0.16 0.16 0.17 0.17 0.17 0.19 0.19 0.19 0.18 0.18 0.17 0.17 0.17 0.16 0.16 0.16 0.15 0.15 0.15 0.15 0.15 0.15
0.11 0.10 0.10 0.09 0.09 0.09 0.10 0.10 0.09 0.09 0.10 0.10 0.11 0.11 0.11 0.10 0.09 0.11 0.13 0.13 0.13 0.13 0.13 0.13 0.14 0.14 0.14 0.15 0.15 0.15 0.16 0.16 0.17 0.18 0.18 0.19 0.19 0.20 0.18 0.18 0.18 0.18 0.17 0.17 0.16 0.16 0.16 0.15 0.15 0.15 0.14 0.14 0.14 0.14
Wind_Speed
46 44 42 42 42 40 39 38 39 39 41 40 40 39 39 38 37 35 33 33 32 32 32 31 30 29 28 28 27 26 25 25 24 24 25 25 26 26 25 25 23 22 21 25 24 26 29 25 29 31 33 33 35 37
47 45 42 41 41 40 40 39 39 39 39 39 39 38 37 38 39 39 36 35 35 34 32 31 32 31 31 31 29 28 28 26 25 25 25 24 26 26 26 26 25 26 25 25 25 28 31 31 33 34 34 35 36 36
48 46 44 40 41 40 39 41 41 40 39 39 39 40 40 39 39 40 37 35 33 34 35 35 34 33 32 32 31 29 29 28 28 27 26 26 28 26 25 28 27 28 28 29 31 32 32 32 33 33 34 34 35 36
48 47 44 42 39 41 40 40 41 41 40 39 40 39 39 39 40 40 39 37 35 33 32 33 31 29 30 30 29 30 29 27 27 27 27 27 28 28 28 30 29 29 28 31 34 34 33 33 32 32 33 34 35 36
47 47 45 43 40 41 39 38 39 40 40 39 36 36 36 36 36 36 36 37 36 34 29 29 30 30 29 29 28 28 27 27 27 27 28 28 28 28 31 32 32 31 30 30 33 32 31 31 31 32 32 34 35 35
46 46 46 43 40 40 39 37 37 37 37 38 36 34 32 32 31 31 30 33 34 33 31 31 31 30 29 26 26 25 26 26 26 26 28 29 29 30 30 31 32 30 31 32 32 31 31 30 30 32 32 33 34 33
44 45 46 43 40 38 37 37 35 36 35 35 35 34 32 30 30 30 29 29 29 28 27 27 28 30 29 28 27 26 26 26 27 28 29 30 30 30 31 32 30 31 30 30 29 29 29 30 31 31 32 32 31 30
42 43 44 44 41 39 36 36 36 34 33 33 33 33 33 30 29 29 27 25 25 25 26 25 26 25 25 24 24 26 26 27 28 29 29 29 30 29 31 29 28 28 27 28 28 29 29 29 29 30 30 29 28 29
40 41 43 44 41 39 35 33 34 33 32 31 32 31 31 33 31 30 28 27 26 26 25 26 26 27 26 26 26 27 28 28 29 28 28 28 28 27 28 27 27 27 28 27 27 27 28 28 28 28 27 28 28 29
37 39 41 42 41 38 36 35 32 32 30 29 29 28 29 31 29 30 30 28 28 29 30 30 29 28 27 28 27 26 27 26 26 27 25 26 28 27 28 27 26 26 26 25 26 27 27 26 26 26 26 27 29 30
34 36 38 40 40 37 35 34 33 30 28 28 26 26 26 26 27 27 27 28 28 29 29 30 29 28 28 27 26 26 25 25 25 27 26 27 27 25 25 24 24 23 23 23 24 24 24 24 24 25 27 27 28 29
33 33 35 39 39 37 35 33 32 30 27 26 23 23 24 25 25 26 26 27 27 27 26 25 24 25 25 25 24 25 24 23 26 25 26 27 25 24 23 21 20 20 21 21 22 22 23 23 24 25 26 27 27 27
32 32 32 36 38 36 34 33 33 30 26 24 23 22 21 22 23 25 26 25 24 24 24 24 23 23 23 23 22 22 23 25 25 25 26 25 22 22 20 19 19 19 20 20 21 22 22 23 24 24 25 25 25 27
31 30 31 34 35 35 32 32 32 28 26 24 22 21 22 22 23 23 23 23 24 24 23 22 23 23 23 22 23 22 23 22 22 23 23 22 21 19 18 18 18 19 19 19 19 21 22 23 24 23 23 24 26 27
30 29 29 32 33 33 32 31 30 26 24 22 21 22 23 21 20 20 20 21 22 22 22 21 22 22 21 21 21 20 20 22 22 21 21 19 18 17 17 17 16 16 17 18 20 21 21 21 21 22 23 24 25 27
27 27 27 30 32 31 32 28 27 24 22 19 19 18 19 19 20 20 20 20 20 20 20 20 21 20 21 20 20 22 19 21 20 20 19 17 16 16 15 14 14 15 17 18 19 20 20 20 20 21 23 24 26 27
25 23 26 28 28 30 29 24 23 20 20 18 17 17 17 17 17 18 19 19 18 17 18 18 19 19 19 20 21 21 20 18 17 16 15 15 14 13 13 14 15 17 18 19 19 19 19 20 20 21 23 25 26 27
22 22 26 29 28 25 22 20 20 18 17 17 16 17 16 16 16 17 18 19 19 20 20 20 19 20 21 21 19 18 17 16 15 13 13 13 13 14 15 16 17 17 19 19 19 19 19 19 20 21 23 24 25 26
23 25 26 27 26 21 16 16 17 16 17 17 16 15 15 15 15 16 16 17 18 18 17 18 18 18 18 18 18 17 16 15 15 14 14 14 15 15 16 16 17 19 19 19 19 19 19 20 20 21 23 24 24 24
25 23 23 22 20 18 16 15 16 16 17 17 17 16 16 16 17 17 17 17 17 18 18 18 19 18 17 17 16 15 15 14 14 15 15 15 16 16 17 17 19 19 19 18 19 19 18 19 19 21 22 23 23 22
20 19 18 17 15 12 12 11 12 12 14 14 15 14 15 15 16 16 16 16 16 17 17 17 17 18 17 16 16 15 16 16 16 16 17 17 17 17 18 18 18 18 18 18 18 18 18 18 20 20 21 21 20 19
16 16 15 13 11 11 10 10 10 11 11 11 12 14 14 15 16 16 16 15 16 16 16 16 16 16 16 16 17 17 17 17 17 17 16 15 16 17 18 18 18 17 17 17 17 17 18 19 19 19 19 19 18 17
14 12 10 10 9 9 9 10 9 9 9 10 10 11 12 12 13 12 12 13 14 15 14 14 14 14 14 15 15 15 15 15 15 15 16 16 17 17 17 17 17 17 17 17 17 17 18 18 18 17 17 16 15 14
10 9 8 9 9 9 9 9 9 8 8 7 7 7 8 8 9 9 10 10 11 11 12 12 12 12 12 12 12 12 13 14 15 15 16 17 17 18 17 17 17 17 17 17 17 17 17 17 16 15 15 14 13 12
9 7 7 7 8 8 9 9 9 8 8 9 9 9 8 9 8 8 9 9 9 9 9 10 11 11 11 12 13 13 14 15 16 17 17 17 17 17 18 18 18 17 17 17 17 17 16 16 15 14 13 13 12 12
7 6 6 7 7 8 9 8 9 9 9 9 9 9 9 8 9 9 9 10 10 10 10 10 11 11 12 13 14 14 15 16 16 17 17 18 18 18 18 18 18 19 18 18 17 17 16 15 14 13 12 12 11 11
5 6 6 7 8 8 8 8 9 9 9 10 10 10 10 10 11 10 10 10 10 10 11 11 11 12 12 13 13 14 15 16 17 17 17 18 18 19 19 19 19 19 18 18 18 17 16 15 13 12 11 11 11 11
4 4 5 5 4 6 6 6 6 7 7 8 7 7 7 8 9 9 9 9 9 9 9 10 10 11 12 13 14 15 16 17 18 18 19 20 20 20 20 20 20 20 20 19 18 17 16 14 13 13 12 12 12 12
2 2 2 2 2 2 3 4 5 4 4 4 4 5 5 5 5 6 7 8 9 10 11 12 13 14 15 16 17 18 19 19 19 20 20 20 20 20 21 21 20 20 19 18 18 17 16 15 14 14 14 14 15 15
2 1 2 1 0 1 2 1 2 2 2 2 3 3 4 5 7 8 9 10 11 12 13 14 16 16 17 18 19 19 20 20 21 21 20 20 20 20 21 20 19 18 17 17 16 16 16 16 16 17 17 17 17 17
1 1 1 1 1 1 2 1 1 2 2 3 5 5 7 8 9 10 11 12 13 14 15 16 17 18 18 19 20 20 20 20 19 18 18 17 17 18 17 16 16 16 16 15 16 16 17 18 18 19 19 19 19 20
3 2 1 1 2 3 3 3 4 5 6 6 8 9 10 10 11 13 13 13 14 15 15 15 16 16 16 16 16 16 16 15 15 14 14 14 15 16 15 14 13 13 13 14 14 15 16 17 18 19 20 21 22 23
3 3 3 3 5 6 7 7 8 8 9 9 11 11 12 12 13 14 14 14 14 13 13 13 13 13 13 13 12 12 12 12 12 13 13 13 14 13 12 12 13 13 14 15 16 16 18 19 20 21 23 24 25 26
Wind_Direction
232 234 235 234 234 235 234 233 230 232 231 232 236 237 239 239 240 243 250 249 253 260 260 261 263 265 269 270 273 278 283 282 283 283 289 291 292 293 299 300 300 298 299 300 304 304 304 305 310 308 312 313 313 315
230 231 233 234 232 232 233 232 232 231 232 235 235 236 238 240 242 243 250 250 254 259 264 264 263 265 268 271 272 270 277 279 279 286 288 291 292 295 297 298 296 298 296 300 294 299 305 303 307 309 309 310 312 313
228 229 230 234 231 232 233 232 233 233 236 235 236 239 242 243 244 243 248 249 252 257 264 264 264 266 267 269 269 271 273 276 278 285 286 287 289 293 293 293 295 297 297 298 302 303 302 303 305 307 308 309 311 313
228 227 229 230 232 232 234 234 234 234 234 236 238 241 242 244 243 243 246 248 251 257 259 262 263 266 270 269 269 270 273 275 278 281 283 285 288 288 292 296 294 298 298 298 299 301 303 303 305 305 307 309 311 312
227 227 227 228 233 231 232 234 232 233 234 236 238 241 241 242 242 243 244 246 248 249 257 260 261 267 269 270 269 270 271 275 277 280 281 283 286 289 293 295 295 296 296 297 299 302 302 304 304 305 307 309 310 312
227 226 226 226 229 230 231 233 232 231 234 234 236 238 239 239 235 241 244 246 247 247 253 257 262 266 267 269 270 272 274 276 276 279 281 283 286 288 290 294 297 296 298 299 298 300 303 303 304 306 307 309 311 312
227 226 224 224 227 228 230 230 231 230 232 235 235 234 234 237 239 242 247 248 243 246 250 255 259 263 264 266 269 271 275 277 279 280 281 284 286 287 290 292 296 296 297 299 300 301 302 302 303 306 308 310 311 312
226 226 224 223 225 226 229 229 228 229 232 233 233 232 232 235 235 242 244 245 244 245 249 253 258 261 264 267 271 275 277 280 282 282 283 284 288 289 290 293 295 295 297 299 300 302 302 303 305 308 309 310 312 313
226 225 223 221 223 224 226 227 223 227 231 231 231 232 235 237 240 242 243 244 246 248 250 254 254 260 262 268 273 278 280 281 282 282 282 286 288 286 291 292 291 292 294 296 298 300 302 304 307 308 310 311 312 313
225 225 223 220 220 223 223 221 221 226 227 228 232 237 238 237 237 238 248 248 249 252 255 256 258 262 264 270 275 278 280 279 282 282 285 286 289 290 291 292 291 291 294 295 298 299 302 304 307 309 310 311 312 314
224 223 221 218 216 218 218 217 220 219 223 228 233 237 237 235 239 242 244 247 251 255 256 258 260 263 265 267 271 274 275 278 281 282 283 288 291 291 291 292 292 292 293 298 301 303 305 305 307 308 311 313 314 316
221 220 219 215 213 215 216 217 216 218 222 222 229 232 236 243 244 243 247 251 253 254 256 258 258 260 264 268 270 271 273 275 279 283 286 289 290 289 288 288 289 291 295 300 303 304 306 307 308 310 312 314 316 317
217 217 216 213 211 211 214 215 213 214 217 226 231 231 238 242 242 244 246 252 254 253 255 255 259 261 265 267 268 269 272 274 281 282 284 286 287 285 284 285 289 294 298 301 304 306 308 309 310 312 314 315 317 319
212 212 212 209 208 208 209 209 208 212 221 226 228 232 237 241 247 248 248 250 253 256 253 255 259 263 264 266 267 271 275 277 279 281 281 285 281 281 282 287 291 296 299 302 305 308 309 311 311 313 315 317 319 320
206 207 207 205 204 203 201 203 207 214 221 227 231 238 241 245 250 252 251 252 255 251 251 256 259 260 263 263 268 270 274 274 274 279 282 284 282 280 284 289 292 297 300 304 308 310 311 312 313 314 317 319 321 322
199 201 203 200 198 199 196 200 205 214 219 227 234 240 245 247 251 254 255 255 255 251 253 257 259 260 259 262 267 265 268 272 280 281 283 281 280 281 283 287 292 297 303 306 310 311 311 312 313 315 318 320 323 324
190 195 193 191 192 189 192 199 205 212 220 228 236 240 245 250 252 255 258 257 251 253 256 258 260 260 264 267 267 268 269 275 279 280 278 278 275 276 280 286 293 297 302 305 309 310 310 311 314 317 320 322 325 326
183 183 180 177 180 185 195 203 206 213 220 228 231 241 246 253 256 261 262 257 255 255 259 261 262 260 263 265 267 269 269 270 272 273 276 275 275 275 280 287 295 299 302 305 306 308 310 312 315 317 320 323 325 327
174 172 173 177 182 186 197 205 211 218 227 231 237 245 250 255 262 268 267 260 259 257 256 259 259 262 263 263 263 266 263 262 266 271 276 278 276 276 282 289 296 300 302 303 304 307 308 310 313 317 320 323 325 327
160 163 170 176 188 197 208 220 223 228 234 239 242 246 250 254 260 266 269 264 256 254 256 260 260 260 262 265 266 264 261 263 267 274 277 278 278 278 284 290 296 298 300 301 303 306 308 312 314 318 320 323 325 327
161 167 171 182 192 200 210 220 224 229 233 240 242 246 251 257 264 269 267 260 254 254 259 264 263 261 260 262 264 261 263 263 270 275 278 278 278 281 284 290 295 297 298 300 302 304 308 311 314 317 320 323 326 328
167 171 179 187 199 208 216 228 224 229 238 241 246 253 258 264 267 266 263 258 257 258 262 265 262 260 257 260 264 267 265 264 271 275 277 278 279 281 286 290 293 295 297 298 300 303 306 310 314 317 321 324 327 329
169 179 190 202 211 224 226 224 227 242 244 250 257 262 266 266 263 260 258 257 259 261 262 261 259 261 261 263 263 264 264 265 269 273 277 280 282 285 287 289 292 294 296 296 298 301 304 309 312 315 319 323 326 329
185 197 210 216 221 224 230 236 235 237 243 251 252 259 261 261 259 257 260 263 264 263 262 257 256 260 262 262 263 266 269 270 273 277 281 282 283 285 286 288 290 291 292 295 297 299 302 306 309 311 316 319 322 325
204 224 219 215 223 221 224 232 235 241 247 250 250 260 265 266 260 261 267 270 265 261 260 256 258 259 261 264 267 271 274 275 278 280 281 283 284 286 287 287 287 288 290 293 295 297 298 300 303 306 309 310 315 317
192 220 222 233 233 227 227 232 240 243 249 258 259 257 259 261 258 260 270 273 267 265 265 264 265 266 268 271 272 274 277 280 281 283 284 284 285 285 286 286 288 288 287 289 290 291 293 294 296 299 302 305 309 313
208 237 243 242 237 231 237 247 246 250 255 254 254 256 257 258 260 266 270 272 268 267 270 270 271 272 272 275 279 281 283 284 285 285 286 286 287 287 287 287 287 286 285 286 285 285 285 286 286 288 291 297 301 306
229 242 231 244 237 247 240 247 252 253 255 259 250 258 255 260 262 267 271 272 270 269 271 274 276 279 281 283 285 287 288 288 288 288 287 287 287 287 287 287 287 286 284 282 279 278 277 276 276 279 283 288 293 298
109 152 168 155 189 217 249 251 248 248 246 241 250 260 263 273 273 274 275 278 278 277 279 282 285 286 286 288 289 289 290 290 290 290 289 288 289 288 288 287 287 285 283 280 276 270 269 270 271 274 279 285 289 292
105 103 106 49 1 299 258 222 194 213 235 247 258 265 280 287 289 290 289 289 287 286 287 288 289 290 289 290 291 292 292 291 290 289 288 287 288 290 290 287 285 284 282 278 274 269 268 265 268 275 280 283 286 288
350 314 329 332 188 192 182 200 233 255 277 286 292 290 293 295 297 300 299 297 294 293 293 294 295 295 295 294 294 293 293 293 292 289 287 288 292 296 294 289 285 283 281 279 276 272 269 270 272 275 278 281 284 287
323 310 263 244 241 243 271 278 284 287 294 294 297 298 300 301 301 300 301 301 300 300 300 299 300 301 302 301 300 298 297 297 296 292 290 292 295 299 297 291 288 287 285 283 281 279 277 276 276 278 280 283 285 287
312 302 287 275 274 276 278 282 291 290 293 295 297 297 297 299 299 300 302 303 301 301 302 304 305 306 307 307 308 307 307 305 303 301 299 299 300 303 301 297 292 289 289 288 286 285 283 282 283 283 284 286 287 289